Location: ???????
(56.2167°N, 38.0500°E)
Time: 06:59:56
(UTC+00:00)

Cosmos 2322 Rocket - Pass Details

Date: 19 May 2025
Orbit: 832 x 849 km, 71.0° (Epoch: 23 June)

Event Time Altitude Azimuth Distance (km) Brightness Sun altitude
Rises 19:22:05 0° 322° (NW) 3,422 7.5 -9.6°
Reaches altitude 10° 19:24:42 10° 330° (NNW) 2,481 6.3 -9.8°
Maximum altitude 19:30:04 41° 40° (NE) 1,217 3.3 -10.1°
Drops below altitude 10° 19:35:23 10° 110° (ESE) 2,460 4.2 -10.4°
Enters shadow 19:36:32 - 114° (ESE) 2,864 4.5 -10.5°
